Regional Weather Roundup
Issued by NWS

Home | Current Version | Previous Version | Text Only | Print | Product List | Glossary Off
Versions: 1 2 3 4 5 6 7 8 9 10 11 12 13 14 15 16 17 18 19 20 21 22 23 24 25 26 27 28 29 30 31 32 33 34 35 36 37 38 39 40 41 42 43 44 45 46 47 48 49 50

000
ASUS43 KMPX 052301
RWRMN
WEATHER ROUNDUP FOR MINNESOTA
NATIONAL WEATHER SERVICE TWIN CITIES/CHANHASSEN MN
500 PM CST FRI FEB 05 2016


NOTE: "FAIR" INDICATES FEW OR NO CLOUDS BELOW 12,000 FEET WITH NO
SIGNIFICANT WEATHER AND/OR OBSTRUCTIONS TO VISIBILITY. N/A MEANS
CURRENT SKY AND/OR WEATHER CONDITIONS ARE NOT AVAILABLE.

MNZ060>063-068>070-060000-
   Twin Cities Metro

CITY           SKY/WX    TMP DP  RH WIND       PRES   REMARKS
TWIN CITIES    FLURRIES  26  16  65 SW12      30.23S WCI  16
ST PAUL        CLOUDY    26  16  65 S9        30.24F WCI  17
CRYSTAL        CLOUDY    27  17  66 S9        30.19F WCI  18
BLAINE         FLURRIES  28  18  64 SW13G21   30.19F WCI  18
LAKEVILLE      LGT SNOW  23  19  86 SW5       30.22F WCI  17
EDEN PRAIRIE   CLOUDY    26  18  71 S15       30.21S HAZE    WCI  14
SOUTH ST PAUL  CLOUDY    27  17  64 S7        30.23S WCI  19
LAKE ELMO      CLOUDY    27  19  74 S12       30.22F WCI  16
$$
MNZ001>005-007-008-013>017-022>024-027-028-060000-
   Northwest Minnesota

CITY           SKY/WX    TMP DP  RH WIND       PRES   REMARKS
BEMIDJI        CLOUDY    25  20  81 W8        30.07S WCI  16
HALLOCK        CLOUDY    21  18  86 CALM      30.12S
ROSEAU         CLOUDY    23  16  74 SW5       30.10S WCI  17
WARROAD        CLOUDY    21  16  79 SW6       30.09S WCI  14
THIEF RVR FALL PTCLDY    21  16  79 W8        30.13R WCI  12
CROOKSTON      CLEAR     21  18  86 CALM      30.15R
FOSSTON        CLEAR     21  16  79 SW5       30.12R WCI  15
DETROIT LAKES  CLOUDY    27  23  86 W6        30.11F WCI  20
MOORHEAD       CLEAR     27  21  80 CALM      30.14F
PARK RAPIDS    CLOUDY    27  21  78 SW8       30.08F WCI  19
MAHNOMEN       MOCLDY    23  20  87 W8        30.11F WCI  14
$$
MNZ006-009>011-018-025>026-060000-
   North Central Minnesota

CITY           SKY/WX    TMP DP  RH WIND       PRES   REMARKS
BAUDETTE       CLOUDY    23  14  68 N3        30.07R
FLAG ISLAND    CLOUDY    19  16  86 CALM      30.07S
INTL FALLS     CLOUDY    25  15  66 W8        30.07S WCI  16
WASKISH        CLOUDY    21  18  86 SW8       30.09S WCI  12
LONGVILLE      CLOUDY    27  19  74 SW5       30.10S WCI  21
GRAND RAPIDS   CLOUDY    27  16  63 W5        30.10S WCI  21
CRANE LAKE     CLOUDY    23  12  63 SW2       30.09F
ORR            CLOUDY    23  12  63 CALM      30.05S
COOK           CLOUDY    25  16  68 SW5       30.07F WCI  19
WALKER         CLOUDY    27  21  77 SW8       30.08F WCI  19
$$
MNZ012-019>021-037-060000-
   Northeast Minnesota

CITY           SKY/WX    TMP DP  RH WIND       PRES   REMARKS
DULUTH         CLOUDY    25  11  55 SW17G25   30.09S WCI  12
ELY            CLOUDY    23  14  68 SW5       30.06S WCI  17
HIBBING        CLOUDY    24  13  62 S3        30.07F
EVELETH        CLOUDY    27  12  54 SW9       30.09S WCI  17
DULUTH HARBOR  CLOUDY    28  14  54 SW16G22   30.15S WCI  17
TWO HARBORS    CLOUDY    28  16  59 SW9       30.09F WCI  20
SILVER BAY     CLOUDY    25  16  68 S5        30.08F WCI  19
GRAND MARAIS     N/A     26  18  71 SW17      30.14F WCI  13
G MARAIS ARPRT FLURRIES  18  10  73 S9G16     30.06F WCI   6
$$
MNZ029>031-032-039>041-046>048-054>057-064-060000-
   West Central Minnesota

CITY           SKY/WX    TMP DP  RH WIND       PRES   REMARKS
FERGUS FALLS   CLOUDY    27  21  80 CALM      30.17S
WHEATON        CLEAR     32  27  80 NW5       30.17S WCI  27
MORRIS         CLOUDY    28  25  86 NW6       30.15S WCI  22
ALEXANDRIA     CLOUDY    25  19  78 W7        30.14R WCI  17
ELBOW LAKE     CLOUDY    25  22  91 W3        30.15F FOG
WADENA         CLOUDY    25  19  80 W7        30.11F WCI  17
GLENWOOD       CLOUDY    25  21  86 SW7       30.14S WCI  17
APPLETON       CLOUDY    28  25  86 CALM      30.17R
BENSON         CLOUDY    28  21  74 CALM      30.17R
ORTONVILLE     CLOUDY    30  25  80 N3        30.15S
MADISON        CLOUDY    30  25  80 NW3       30.17R
WILLMAR        CLOUDY    28  23  80 W9        30.18R WCI  20
$$
MNZ033>034-036-042>043-049>051-058-059-060000-
   Central Minnesota

CITY           SKY/WX    TMP DP  RH WIND       PRES   REMARKS
ST CLOUD       CLOUDY    24  16  71 S8        30.17S WCI  15
SAUK CENTRE    CLOUDY    25  20  79 SW5       30.15R WCI  20
PAYNESVILLE    CLOUDY    26  20  80 CALM      30.17R
AITKIN         CLOUDY    30  12  47 SW6       30.11S WCI  24
PINE RIVER     CLOUDY    27  18  69 SW6       30.13F WCI  20
BRAINERD       CLOUDY    26  15  63 SW8       30.13S WCI  18
STAPLES        CLOUDY    25  18  74 SW6       30.13S WCI  18
LONG PRAIRIE   CLOUDY    25  19  80 S6        30.15R WCI  18
LITTLE FALLS   CLOUDY    27  18  69 S7        30.16S WCI  19
LITCHFIELD     CLOUDY    27  21  80 CALM      30.16S
BUFFALO        CLOUDY    26  19  74 S10G16    30.19F WCI  15
MAPLE LAKE     CLOUDY    26  20  76 S9        30.17F WCI  17
$$
MNZ037-044-045-052-053-060000-
   East Central Minnesota

CITY           SKY/WX    TMP DP  RH WIND       PRES   REMARKS
PRINCETON      CLOUDY    27  18  69 S10G16    30.17S WCI  17
MORA           CLOUDY    27  14  59 SW9       30.19R WCI  17
CAMBRIDGE      CLOUDY    28  16  59 S10G20    30.16F WCI  19
RUSH CITY      MOCLDY    25  16  68 S8        30.18S WCI  16
MOOSE LAKE     CLOUDY    27  14  59 S8        30.13S WCI  18
HINCKLEY       MOCLDY    25  18  74 S8        30.17R WCI  16
CLOQUET        CLOUDY    25  12  58 SW9G18    30.11S WCI  15
MCGREGOR       CLOUDY    28  16  59 SW7       30.13S WCI  21
$$
MNZ071>073-080-081-089-090-097-098-060000-
   Southwest Minnesota

CITY           SKY/WX    TMP DP  RH WIND       PRES   REMARKS
MONTEVIDEO     PTCLDY    30  21  69 NW5       30.19R WCI  25
GRANITE FALLS  MOCLDY    28  24  83 SW7       30.18R WCI  21
CANBY          MOCLDY    32  27  82 NW9       30.17R WCI  24
MARSHALL       CLOUDY    27  23  85 W10       30.17R WCI  17
REDWOOD FALLS  CLOUDY    28  24  85 SW9       30.17S WCI  19
OLIVIA         CLOUDY    30  27  86 SW7       30.16R WCI  23
PIPESTONE        N/A     30  21  69 W8        30.14R WCI  23
WINDOM         MIX PCPN  27  25  93 S13       30.16S WCI  16
WORTHINGTON    CLOUDY    25  21  86 SW15      30.17S WCI  12
JACKSON        CLOUDY    28  23  80 SW16      30.18S WCI  17
TRACY          CLOUDY    29  26  87 SW12      30.15S WCI  19
SLAYTON        CLOUDY    27  27  99 SW12      30.14S FOG     WCI  17
$$
MNZ065>067-074>077-082>085-091>093-060000-
   South Central Minnesota

CITY           SKY/WX    TMP DP  RH WIND       PRES   REMARKS
MANKATO        CLOUDY    23  18  80 S14       30.21F WCI  11
NEW ULM        CLOUDY    25  21  86 S9        30.19S WCI  15
ST JAMES       CLOUDY    27  25  93 S14       30.21R WCI  15
FAIRMONT       CLOUDY    25  19  80 S20       30.18F WCI  11
GLENCOE        CLOUDY    26  23  89 S10       30.18F WCI  16
FARIBAULT      CLOUDY    25  18  74 S7        30.23S WCI  17
OWATONNA       CLOUDY    23  18  80 S8        30.22S WCI  14
WASECA         LGT SNOW  23  19  86 S13       30.23S WCI  11
ALBERT LEA     LGT SNOW  23  18  80 S12       30.22F WCI  12
$$
MNZ078>079-086>088-094>096-060000-
   Southeast Minnesota

CITY           SKY/WX    TMP DP  RH WIND       PRES   REMARKS
ROCHESTER      CLOUDY    20  13  74 S13       30.24S WCI   7
RED WING       CLOUDY    25  12  58 S5        30.25S WCI  19
STANTON        CLOUDY    25  16  68 S9        30.23R WCI  16
DODGE CENTER   MOCLDY    21  16  79 S13       30.22F HAZE    WCI   9
WINONA         CLOUDY    28  16  59 CALM      30.29F
AUSTIN         CLOUDY    21  18  86 S8        30.24F WCI  12
PRESTON        CLOUDY    19  13  78 S10       30.25F WCI   8
$$
ABBREVIATIONS USED IN REMARKS
   TC - TEMPERATURES IN CELSIUS
  WCI - WIND CHILL INDEX
   HX - HEAT INDEX
  VSB - VISIBILITY
$$



USA.gov is the U.S. government's official web portal to all federal, state and local government web resources and services.